Satellite: STUDSAT
Catalog number: 36801
Epoch time:      10265.76603852
Element set:    0075
Inclination:      098.1412 deg
RA of node:       325.8754 deg
Eccentricity:    0.0015120
Arg of perigee:   050.5372 deg
Mean anomaly:     309.7172 deg
Mean motion:   14.79658082 rev/day
Decay rate:      1.074e-05 rev/day^2
Epoch rev:           01074
Checksum:              282

/EX
SB KEPS @ AMSAT  $ORB10266.W
Orbital Elements  10266.WEATHER

HR AMSAT ORBITAL ELEMENTS FOR WEATHER SATELLITES
FROM WA5QGD FORT WORTH,TX September 23, 2010
Send Subscribe/unsubscribe to KEPS at
http://www.amsat.org/mailman/listinfo/keps
BID: ORB10266.W
TO ALL RADIO AMATEURS BT

Satellite: NOAA-10
Catalog number: 16969
Epoch time:      10266.14738576
Element set:     212
Inclination:      098.6501 deg
RA of node:       294.1663 deg
Eccentricity:    0.0011536
Arg of perigee:   287.8038 deg
Mean anomaly:     072.1872 deg
Mean motion:   14.27427141 rev/day
Decay rate:       -6.1e-07 rev/day^2
Epoch rev:           24955
Checksum:              309

Satellite: NOAA-11
Catalog number: 19531
Epoch time:      10266.32109722
Element set:     222
Inclination:      098.7674 deg
RA of node:       353.6646 deg
Eccentricity:    0.0010773
Arg of perigee:   226.7122 deg
Mean anomaly:     133.3169 deg
Mean motion:   14.14934747 rev/day
Decay rate:      -1.86e-06 rev/day^2
Epoch rev:           13501
Checksum:              288

Satellite: NOAA-12
Catalog number: 21263
Epoch time:      10266.74801863
Element set:     716
Inclination:      098.7654 deg
RA of node:       279.8966 deg
Eccentricity:    0.0011673
Arg of perigee:   238.8810 deg
Mean anomaly:     121.1704 deg
Mean motion:   14.25655199 rev/day
Decay rate:        9.7e-07 rev/day^2
Epoch rev:             649
Checksum:              326

Satellite: MET-3/5
Catalog number: 21655
Epoch time:      10266.71181367
Element set:     921
Inclination:      082.5534 deg
RA of node:       239.0143 deg
Eccentricity:    0.0014904
Arg of perigee:   101.2668 deg
Mean anomaly:     259.0089 deg
Mean motion:   13.17026021 rev/day
Decay rate:        5.1e-07 rev/day^2
Epoch rev:           91864
Checksum:              280

Satellite: MET-2/21
Catalog number: 22782
Epoch time:      10265.48093073
Element set:    0891
Inclination:      082.5501 deg
RA of node:       175.2614 deg
Eccentricity:    0.0023459
Arg of perigee:   126.9256 deg
Mean anomaly:     233.4052 deg
Mean motion:   13.83649921 rev/day
Decay rate:        6.8e-07 rev/day^2
Epoch rev:           86153
Checksum:              306

Satellite: OKEAN-4
Catalog number: 23317
Epoch time:      10266.63947293
Element set:     347
Inclination:      082.5368 deg
RA of node:       261.9599 deg
Eccentricity:    0.0020314
Arg of perigee:   278.7766 deg
Mean anomaly:     081.1158 deg
Mean motion:   14.82863675 rev/day
Decay rate:       4.27e-06 rev/day^2
Epoch rev:           86104
Checksum:              334

Satellite: NOAA-14
Catalog number: 23455
Epoch time:      10266.79715919
Element set:     205
Inclination:      098.8721 deg
RA of node:       346.8251 deg
Eccentricity:    0.0008927
Arg of perigee:   320.3691 deg
Mean anomaly:     039.7314 deg
Mean motion:   14.13794277 rev/day
Decay rate:       -2.0e-08 rev/day^2
Epoch rev:           81152
Checksum:              312

Satellite: NOAA-15
Catalog number: 25338
Epoch time:      10266.81711799
Element set:     530
Inclination:      098.6297 deg
RA of node:       252.0226 deg
Eccentricity:    0.0011151
Arg of perigee:   143.4271 deg
Mean anomaly:     216.8146 deg
Mean motion:   14.24855774 rev/day
Decay rate:        8.7e-07 rev/day^2
Epoch rev:           64280
Checksum:              305

Satellite: RESURS
Catalog number: 25394
Epoch time:      10266.56395337
Element set:     610
Inclination:      098.3044 deg
RA of node:       279.2850 deg
Eccentricity:    0.0001063
Arg of perigee:   341.7576 deg
Mean anomaly:     018.3569 deg
Mean motion:   14.24209968 rev/day
Decay rate:        8.0e-08 rev/day^2
Epoch rev:           63435
Checksum:              307

Satellite: FENGYUN1
Catalog number: 25730
Epoch time:      10265.85783920
Element set:    0144
Inclination:      098.7933 deg
RA of node:       228.2980 deg
Eccentricity:    0.0022390
Arg of perigee:   352.2100 deg
Mean anomaly:     007.8691 deg
Mean motion:   14.08294241 rev/day
Decay rate:       7.63e-06 rev/day^2
Epoch rev:           58543
Checksum:              298

Satellite: OKEAN-0
Catalog number: 25860
Epoch time:      10266.53127760
Element set:     106
Inclination:      097.8452 deg
RA of node:       235.9515 deg
Eccentricity:    0.0001778
Arg of perigee:   094.9426 deg
Mean anomaly:     265.1985 deg
Mean motion:   14.73664310 rev/day
Decay rate:       1.18e-06 rev/day^2
Epoch rev:           60138
Checksum:              305

Satellite: NOAA-16
Catalog number: 26536
Epoch time:      10266.47035811
Element set:       6
Inclination:      099.1679 deg
RA of node:       286.2452 deg
Eccentricity:    0.0011155
Arg of perigee:   064.6124 deg
Mean anomaly:     295.6235 deg
Mean motion:   14.12578542 rev/day
Decay rate:       3.60e-06 rev/day^2
Epoch rev:           51570
Checksum:              293

Satellite: NOAA-17
Catalog number: 27453
Epoch time:      10266.35450042
Element set:       1
Inclination:      098.4213 deg
RA of node:       312.7955 deg
Eccentricity:    0.0011427
Arg of perigee:   205.8890 deg
Mean anomaly:     154.1704 deg
Mean motion:   14.24192247 rev/day
Decay rate:        9.8e-07 rev/day^2
Epoch rev:           42867
Checksum:              287

Satellite: NOAA-18
Catalog number: 28654
Epoch time:      10266.41499292
Element set:     489
Inclination:      098.9582 deg
RA of node:       212.4333 deg
Eccentricity:    0.0014953
Arg of perigee:   134.1507 deg
Mean anomaly:     226.0906 deg
Mean motion:   14.11391056 rev/day
Decay rate:       2.97e-06 rev/day^2
Epoch rev:           27529
Checksum:              321

Satellite: NOAA-19
Catalog number: 33591
Epoch time:      10266.42443257
Element set:     685
Inclination:      098.7947 deg
RA of node:       206.4852 deg
Eccentricity:    0.0014665
Arg of perigee:   015.0414 deg
Mean anomaly:     345.1181 deg
Mean motion:   14.11084922 rev/day
Decay rate:      -1.05e-06 rev/day^2
Epoch rev:            8376
Checksum:              300

/EX
SB KEPS @ AMSAT  $ORB10266.M
Orbital Elements  10266.MISC

HR AMSAT ORBITAL ELEMENTS FOR MANNED AND MISCELLANEOUS SATELLITES
FROM WA5QGD FORT WORTH,TX September 23, 2010
Send Subscribe/unsubscribe to KEPS at
http://www.amsat.org/mailman/listinfo/keps
BID: ORB10266.M
TO ALL RADIO AMATEURS BT

Satellite: HUBBLE
Catalog number: 20580
Epoch time:      10265.25740514
Element set:     649
Inclination:      028.4710 deg
RA of node:       326.1269 deg
Eccentricity:    0.0003597
Arg of perigee:   154.1233 deg
Mean anomaly:     205.9576 deg
Mean motion:   15.01040865 rev/day
Decay rate:       5.95e-06 rev/day^2
Epoch rev:           91935
Checksum:              289

Satellite: ISS
Catalog number: 25544
Epoch time:      10267.01529725
Element set:     943
Inclination:      051.6446 deg
RA of node:       084.9754 deg
Eccentricity:    0.0006746
Arg of perigee:   028.0911 deg
Mean anomaly:     112.1887 deg
Mean motion:   15.71273653 rev/day
Decay rate:     1.6022e-04 rev/day^2
Epoch rev:           67901
Checksum:              299

Satellite: CO-58
Catalog number: 28895
Epoch time:      10265.71651820
Element set:    0687
Inclination:      097.9979 deg
RA of node:       146.8855 deg
Eccentricity:    0.0017392
Arg of perigee:   343.0201 deg
Mean anomaly:     017.0438 deg
Mean motion:   14.59936295 rev/day
Decay rate:       3.45e-06 rev/day^2
Epoch rev:           26121
Checksum:              342

Satellite: FALCON
Catalog number: 30776
Epoch time:      10266.87694109
Element set:     921
Inclination:      035.4330 deg
RA of node:       165.0590 deg
Eccentricity:    0.0001925
Arg of perigee:   310.1256 deg
Mean anomaly:     049.9275 deg
Mean motion:   15.03829462 rev/day
Decay rate:       9.95e-06 rev/day^2
Epoch rev:           19492
Checksum:              306

Satellite: MAST
Catalog number: 31126
Epoch time:      10266.58732791
Element set:     970
Inclination:      097.9281 deg
RA of node:       303.4659 deg
Eccentricity:    0.0093594
Arg of perigee:   280.5967 deg
Mean anomaly:     078.4688 deg
Mean motion:   14.53621528 rev/day
Decay rate:       1.14e-06 rev/day^2
Epoch rev:           18235
Checksum:              331

Satellite: CAPE1
Catalog number: 31130
Epoch time:      10266.59608780
Element set:     989
Inclination:      097.9317 deg
RA of node:       300.6921 deg
Eccentricity:    0.0101729
Arg of perigee:   289.3200 deg
Mean anomaly:     069.6997 deg
Mean motion:   14.52224023 rev/day
Decay rate:       1.26e-06 rev/day^2
Epoch rev:           18194
Checksum:              306

Satellite: COMPASS
Catalog number: 32787
Epoch time:      10265.19619769
Element set:    0783
Inclination:      097.8851 deg
RA of node:       328.5740 deg
Eccentricity:    0.0015330
Arg of perigee:   333.8558 deg
Mean anomaly:     026.1916 deg
Mean motion:   14.81969727 rev/day
Decay rate:       1.48e-06 rev/day^2
Epoch rev:           12986
Checksum:              348

Satellite: AAUSAT2
Catalog number: 32788
Epoch time:      10266.67499206
Element set:     775
Inclination:      097.8851 deg
RA of node:       330.1810 deg
Eccentricity:    0.0014801
Arg of perigee:   329.8490 deg
Mean anomaly:     030.1868 deg
Mean motion:   14.82121499 rev/day
Decay rate:       5.44e-06 rev/day^2
Epoch rev:           13009
Checksum:              312

